Time,TemperatureF,DewpointF,PressureIn,WindDirection,WindDirectionDegrees,WindSpeedMPH,WindSpeedGustMPH,Humidity,HourlyPrecipIn,Conditions,Clouds,dailyrainin,SoftwareType,DateUTC
2013-05-25 00:10:00,52.3,43.2,30.10,ENE,67,0.0,-999.0,71,-99.99,,,0.00,Acu-Link.com,2013-05-25 05:10:00,
2013-05-25 00:25:00,52.0,42.1,30.09,ENE,67,0.0,-999.0,69,-99.99,,,0.00,Acu-Link.com,2013-05-25 05:25:00,
2013-05-25 00:40:00,51.6,41.8,30.09,ENE,67,0.0,-999.0,69,-99.99,,,0.00,Acu-Link.com,2013-05-25 05:40:00,
2013-05-25 00:56:00,51.1,42.4,30.07,ENE,67,0.0,-999.0,72,-99.99,,,0.00,Acu-Link.com,2013-05-25 05:56:00,
2013-05-25 01:11:00,50.5,41.5,30.07,ENE,67,0.0,-999.0,71,-99.99,,,0.00,Acu-Link.com,2013-05-25 06:11:00,
2013-05-25 01:26:00,50.4,41.7,30.07,East,90,0.0,-999.0,72,-99.99,,,0.00,Acu-Link.com,2013-05-25 06:26:00,
2013-05-25 01:41:00,50.2,41.5,30.06,NE,45,2.2,-999.0,72,-99.99,,,0.00,Acu-Link.com,2013-05-25 06:41:00,
2013-05-25 01:57:00,50.0,41.3,30.06,NE,45,0.0,-999.0,72,-99.99,,,0.00,Acu-Link.com,2013-05-25 06:57:00,
2013-05-25 02:12:00,50.2,39.3,30.05,NE,45,0.0,-999.0,66,-99.99,,,0.00,Acu-Link.com,2013-05-25 07:12:00,
2013-05-25 02:27:00,50.5,38.4,30.05,ENE,67,0.0,-999.0,63,-99.99,,,0.00,Acu-Link.com,2013-05-25 07:27:00,
2013-05-25 02:43:00,50.2,38.5,30.02,NE,45,0.0,-999.0,64,-99.99,,,0.00,Acu-Link.com,2013-05-25 07:43:00,
2013-05-25 02:58:00,49.8,37.7,30.03,ESE,112,0.0,-999.0,63,-99.99,,,0.00,Acu-Link.com,2013-05-25 07:58:00,
2013-05-25 03:13:00,49.6,37.1,30.06,NE,45,0.0,-999.0,62,-99.99,,,0.00,Acu-Link.com,2013-05-25 08:13:00,
2013-05-25 03:28:00,49.5,36.6,30.07,ENE,67,0.0,-999.0,61,-99.99,,,0.00,Acu-Link.com,2013-05-25 08:28:00,
2013-05-25 03:43:00,49.3,38.4,30.08,NNE,22,0.0,-999.0,66,-99.99,,,0.00,Acu-Link.com,2013-05-25 08:43:00,
2013-05-25 03:59:00,49.3,37.2,30.08,ENE,67,0.0,-999.0,63,-99.99,,,0.00,Acu-Link.com,2013-05-25 08:59:00,
2013-05-25 04:16:00,49.3,38.0,30.09,ESE,112,0.0,-999.0,65,-99.99,,,0.00,Acu-Link.com,2013-05-25 09:16:00,
2013-05-25 04:31:00,49.3,38.0,30.09,East,90,2.7,-999.0,65,-99.99,,,0.00,Acu-Link.com,2013-05-25 09:31:00,
2013-05-25 04:46:00,49.5,34.5,30.10,East,90,0.0,-999.0,56,-99.99,,,0.00,Acu-Link.com,2013-05-25 09:46:00,
2013-05-25 05:01:00,49.1,35.4,30.10,East,90,0.0,-999.0,59,-99.99,,,0.00,Acu-Link.com,2013-05-25 10:01:00,
2013-05-25 05:16:00,49.1,36.7,30.10,ENE,67,0.0,-999.0,62,-99.99,,,0.00,Acu-Link.com,2013-05-25 10:16:00,
2013-05-25 05:31:00,49.1,36.7,30.11,East,90,0.0,-999.0,62,-99.99,,,0.00,Acu-Link.com,2013-05-25 10:31:00,
2013-05-25 05:47:00,48.7,38.2,30.12,ESE,112,0.0,-999.0,67,-99.99,,,0.00,Acu-Link.com,2013-05-25 10:47:00,
2013-05-25 06:02:00,48.6,38.1,30.12,ESE,112,0.0,-999.0,67,-99.99,,,0.00,Acu-Link.com,2013-05-25 11:02:00,
2013-05-25 06:17:00,48.4,38.7,30.13,East,90,0.0,-999.0,69,-99.99,,,0.00,Acu-Link.com,2013-05-25 11:17:00,
2013-05-25 06:32:00,48.6,38.9,30.14,ENE,67,0.0,-999.0,69,-99.99,,,0.00,Acu-Link.com,2013-05-25 11:32:00,
2013-05-25 06:48:00,48.7,38.6,30.13,East,90,0.0,-999.0,68,-99.99,,,0.00,Acu-Link.com,2013-05-25 11:48:00,
2013-05-25 07:03:00,49.5,39.8,30.13,East,90,0.0,-999.0,69,-99.99,,,0.00,Acu-Link.com,2013-05-25 12:03:00,
2013-05-25 07:18:00,49.6,38.7,30.11,East,90,0.0,-999.0,66,-99.99,,,0.00,Acu-Link.com,2013-05-25 12:18:00,
2013-05-25 07:34:00,48.6,41.0,30.10,East,90,0.0,-999.0,75,-99.99,,,0.00,Acu-Link.com,2013-05-25 12:34:00,
2013-05-25 07:49:00,47.1,42.5,30.11,NE,45,0.0,-999.0,84,-99.99,,,0.01,Acu-Link.com,2013-05-25 12:49:00,
2013-05-25 08:04:00,46.2,42.5,30.12,NNE,22,0.0,-999.0,87,-99.99,,,0.02,Acu-Link.com,2013-05-25 13:04:00,
2013-05-25 08:20:00,46.6,42.9,30.12,East,90,0.0,-999.0,87,-99.99,,,0.02,Acu-Link.com,2013-05-25 13:20:00,
2013-05-25 08:35:00,47.3,43.3,30.13,East,90,2.2,-999.0,86,-99.99,,,0.02,Acu-Link.com,2013-05-25 13:35:00,
2013-05-25 08:50:00,47.8,43.2,30.13,ENE,67,0.0,-999.0,84,-99.99,,,0.02,Acu-Link.com,2013-05-25 13:50:00,
2013-05-25 09:05:00,48.6,44.3,30.13,NE,45,0.0,-999.0,85,-99.99,,,0.02,Acu-Link.com,2013-05-25 14:05:00,
2013-05-25 09:20:00,49.1,43.8,30.13,ENE,67,0.0,-999.0,82,-99.99,,,0.02,Acu-Link.com,2013-05-25 14:20:00,
2013-05-25 09:36:00,50.0,44.7,30.12,ENE,67,0.0,-999.0,82,-99.99,,,0.02,Acu-Link.com,2013-05-25 14:36:00,
2013-05-25 09:51:00,50.0,44.4,30.13,East,90,0.0,-999.0,81,-99.99,,,0.02,Acu-Link.com,2013-05-25 14:51:00,
2013-05-25 10:06:00,49.8,42.5,30.13,ENE,67,0.0,-999.0,76,-99.99,,,0.02,Acu-Link.com,2013-05-25 15:06:00,
2013-05-25 10:21:00,50.0,43.7,30.13,East,90,0.0,-999.0,79,-99.99,,,0.02,Acu-Link.com,2013-05-25 15:21:00,
2013-05-25 10:37:00,50.4,42.8,30.15,East,90,0.0,-999.0,75,-99.99,,,0.02,Acu-Link.com,2013-05-25 15:37:00,
2013-05-25 10:52:00,50.0,45.0,30.16,East,90,0.0,-999.0,83,-99.99,,,0.02,Acu-Link.com,2013-05-25 15:52:00,
2013-05-25 11:08:00,49.8,46.4,30.18,East,90,0.0,-999.0,88,-99.99,,,0.03,Acu-Link.com,2013-05-25 16:08:00,
2013-05-25 11:23:00,48.7,45.0,30.18,East,90,0.0,-999.0,87,-99.99,,,0.05,Acu-Link.com,2013-05-25 16:23:00,
2013-05-25 11:38:00,47.5,45.3,30.17,East,90,0.0,-999.0,92,-99.99,,,0.11,Acu-Link.com,2013-05-25 16:38:00,
2013-05-25 11:53:00,46.8,44.0,30.17,East,90,0.0,-999.0,90,-99.99,,,0.15,Acu-Link.com,2013-05-25 16:53:00,
2013-05-25 12:08:00,46.6,44.7,30.15,East,90,0.0,-999.0,93,-99.99,,,0.19,Acu-Link.com,2013-05-25 17:08:00,
2013-05-25 12:23:00,46.6,45.0,30.12,ENE,67,0.0,-999.0,94,-99.99,,,0.24,Acu-Link.com,2013-05-25 17:23:00,
2013-05-25 12:39:00,46.6,45.0,30.05,West,270,0.0,-999.0,94,-99.99,,,0.29,Acu-Link.com,2013-05-25 17:39:00,
2013-05-25 12:54:00,46.8,45.2,30.09,North,0,0.0,-999.0,94,-99.99,,,0.29,Acu-Link.com,2013-05-25 17:54:00,
2013-05-25 13:09:00,47.1,45.2,30.09,ENE,67,0.0,-999.0,93,-99.99,,,0.30,Acu-Link.com,2013-05-25 18:09:00,
2013-05-25 13:25:00,47.7,46.1,30.09,ENE,67,0.0,-999.0,94,-99.99,,,0.31,Acu-Link.com,2013-05-25 18:25:00,
2013-05-25 13:40:00,47.8,46.4,30.06,ENE,67,0.0,-999.0,95,-99.99,,,0.33,Acu-Link.com,2013-05-25 18:40:00,
2013-05-25 13:55:00,48.2,46.8,30.08,North,0,0.0,-999.0,95,-99.99,,,0.36,Acu-Link.com,2013-05-25 18:55:00,
2013-05-25 14:10:00,48.6,47.0,30.06,ESE,112,0.0,-999.0,94,-99.99,,,0.36,Acu-Link.com,2013-05-25 19:10:00,
2013-05-25 14:26:00,48.6,47.5,30.02,NE,45,0.0,-999.0,96,-99.99,,,0.37,Acu-Link.com,2013-05-25 19:26:00,
2013-05-25 14:41:00,50.2,48.8,30.01,ESE,112,0.0,-999.0,95,-99.99,,,0.38,Acu-Link.com,2013-05-25 19:41:00,
2013-05-25 14:56:00,51.3,49.6,30.01,East,90,0.0,-999.0,94,-99.99,,,0.38,Acu-Link.com,2013-05-25 19:56:00,
2013-05-25 15:11:00,51.3,49.3,30.02,ENE,67,0.0,-999.0,93,-99.99,,,0.38,Acu-Link.com,2013-05-25 20:11:00,
2013-05-25 15:26:00,51.8,49.6,30.05,South,180,0.0,-999.0,92,-99.99,,,0.38,Acu-Link.com,2013-05-25 20:26:00,
2013-05-25 15:42:00,52.3,50.0,30.05,NE,45,0.0,-999.0,92,-99.99,,,0.38,Acu-Link.com,2013-05-25 20:42:00,
2013-05-25 15:57:00,52.5,50.2,30.05,NE,45,0.0,-999.0,92,-99.99,,,0.38,Acu-Link.com,2013-05-25 20:57:00,
2013-05-25 16:12:00,53.2,50.9,30.06,NW,315,0.0,-999.0,92,-99.99,,,0.38,Acu-Link.com,2013-05-25 21:12:00,
2013-05-25 16:28:00,52.9,50.3,30.07,ESE,112,0.0,-999.0,91,-99.99,,,0.38,Acu-Link.com,2013-05-25 21:28:00,
2013-05-25 16:43:00,52.9,50.6,30.07,ESE,112,0.0,-999.0,92,-99.99,,,0.38,Acu-Link.com,2013-05-25 21:43:00,
2013-05-25 16:58:00,52.9,50.9,30.07,ESE,112,0.0,-999.0,93,-99.99,,,0.39,Acu-Link.com,2013-05-25 21:58:00,
2013-05-25 17:13:00,52.5,50.5,30.07,ESE,112,0.0,-999.0,93,-99.99,,,0.39,Acu-Link.com,2013-05-25 22:13:00,
2013-05-25 17:29:00,52.0,50.6,30.06,ESE,112,0.0,-999.0,95,-99.99,,,0.39,Acu-Link.com,2013-05-25 22:29:00,
2013-05-25 17:44:00,51.6,50.5,30.05,NNE,22,1.7,-999.0,96,-99.99,,,0.39,Acu-Link.com,2013-05-25 22:44:00,
2013-05-25 17:59:00,51.4,50.6,30.05,ESE,112,0.0,-999.0,97,-99.99,,,0.39,Acu-Link.com,2013-05-25 22:59:00,
2013-05-25 18:14:00,51.1,49.7,30.05,ESE,112,0.0,-999.0,95,-99.99,,,0.39,Acu-Link.com,2013-05-25 23:14:00,
2013-05-25 18:30:00,50.7,49.6,30.05,ESE,112,0.0,-999.0,96,-99.99,,,0.39,Acu-Link.com,2013-05-25 23:30:00,
2013-05-25 18:45:00,50.5,49.1,30.05,East,90,3.7,-999.0,95,-99.99,,,0.39,Acu-Link.com,2013-05-25 23:45:00,
2013-05-25 19:00:00,50.5,49.4,30.03,ESE,112,1.7,-999.0,96,-99.99,,,0.39,Acu-Link.com,2013-05-26 00:00:00,
2013-05-25 19:15:00,50.5,49.7,30.03,ENE,67,1.1,-999.0,97,-99.99,,,0.39,Acu-Link.com,2013-05-26 00:15:00,
2013-05-25 19:31:00,50.4,49.6,30.03,NE,45,5.8,-999.0,97,-99.99,,,0.40,Acu-Link.com,2013-05-26 00:31:00,
2013-05-25 19:46:00,50.2,49.4,30.03,NNW,337,0.0,-999.0,97,-99.99,,,0.40,Acu-Link.com,2013-05-26 00:46:00,
2013-05-25 20:01:00,49.6,48.5,30.03,NE,45,7.3,-999.0,96,-99.99,,,0.40,Acu-Link.com,2013-05-26 01:01:00,
2013-05-25 20:16:00,48.7,47.6,30.03,ENE,67,0.0,-999.0,96,-99.99,,,0.40,Acu-Link.com,2013-05-26 01:16:00,
2013-05-25 20:32:00,48.7,47.6,30.02,ENE,67,0.0,-999.0,96,-99.99,,,0.40,Acu-Link.com,2013-05-26 01:32:00,
2013-05-25 20:47:00,48.7,47.9,30.02,ESE,112,0.0,-999.0,97,-99.99,,,0.40,Acu-Link.com,2013-05-26 01:47:00,
2013-05-25 21:02:00,48.7,47.6,30.02,ENE,67,0.0,-999.0,96,-99.99,,,0.40,Acu-Link.com,2013-05-26 02:02:00,
2013-05-25 21:17:00,48.7,47.6,30.03,ESE,112,3.2,-999.0,96,-99.99,,,0.40,Acu-Link.com,2013-05-26 02:17:00,
2013-05-25 21:32:00,48.7,47.6,30.02,East,90,0.0,-999.0,96,-99.99,,,0.40,Acu-Link.com,2013-05-26 02:32:00,
2013-05-25 21:48:00,48.7,47.9,30.03,East,90,0.0,-999.0,97,-99.99,,,0.40,Acu-Link.com,2013-05-26 02:48:00,
2013-05-25 22:03:00,48.4,48.1,30.03,NE,45,3.7,-999.0,99,-99.99,,,0.40,Acu-Link.com,2013-05-26 03:03:00,
2013-05-25 22:18:00,48.2,47.9,30.04,East,90,4.2,-999.0,99,-99.99,,,0.40,Acu-Link.com,2013-05-26 03:18:00,
2013-05-25 22:34:00,48.2,47.9,30.04,ESE,112,2.7,-999.0,99,-99.99,,,0.40,Acu-Link.com,2013-05-26 03:34:00,
2013-05-25 22:49:00,48.2,47.9,30.04,ENE,67,0.0,-999.0,99,-99.99,,,0.40,Acu-Link.com,2013-05-26 03:49:00,
2013-05-25 23:04:00,48.4,48.1,30.03,ENE,67,0.0,-999.0,99,-99.99,,,0.40,Acu-Link.com,2013-05-26 04:04:00,
2013-05-25 23:19:00,48.4,48.1,30.03,NE,45,1.1,-999.0,99,-99.99,,,0.40,Acu-Link.com,2013-05-26 04:19:00,
2013-05-25 23:35:00,48.6,48.1,30.03,NE,45,0.0,-999.0,98,-99.99,,,0.40,Acu-Link.com,2013-05-26 04:35:00,
2013-05-25 23:50:00,48.6,48.1,30.03,ENE,67,0.0,-999.0,98,-99.99,,,0.40,Acu-Link.com,2013-05-26 04:50:00,